This demonstration page uses our WeatherBlox Daily Observations layout. Learn more.

Left ArrowRight Arrow

41.86663, -103.66717

Hourly Observations for September 5, 2018

Temp ( °F °C ) Dew Point ( °F °C ) Humidity (%) Winds ( mph kmh ) Pressure ( in mb ) Visibility ( mi km ) Precip ( " mm )
12:53 am 00:53 Cloudy 58 14.4 53 11.7 84 84 N N/A 30.14 1021 10 16 N/A
1:27 am 01:27 Cloudy 58 14.4 54 12.2 87 87 N N/A 30.15 1021 10 16 N/A
1:53 am 01:53 Cloudy 58 14.4 54 12.2 87 87 N N/A 30.15 1021 10 16 N/A
2:53 am 02:53 Cloudy 58 14.4 54 12.2 87 87 NW 6 9 30.16 1021 10 16 N/A
3:53 am 03:53 Cloudy 57 13.9 54 12.2 90 90 NW 7 11 30.16 1021 10 16 N/A
4:53 am 04:53 Cloudy 58 14.4 55 12.8 90 90 NNW 3 6 30.18 1022 10 16 N/A
5:53 am 05:53 Cloudy 58 14.4 54 12.2 87 87 undefined N/A 30.21 1023 10 16 N/A
6:21 am 06:21 Cloudy 58 14.4 55 12.8 90 90 N 6 9 30.21 1023 10 16 N/A
6:53 am 06:53 Cloudy 58 14.4 54 12.2 87 87 NE 8 13 30.24 1024 10 16 N/A
7:22 am 07:22 Cloudy 57 14 54 12 88 88 NE 8 13 30.24 1024 10 16 N/A
7:53 am 07:53 Cloudy 59 15 53 11.7 81 81 ENE 6 9 30.27 1025 10 16 N/A
8:53 am 08:53 Cloudy 60 15.6 52 11.1 75 75 E 8 13 30.27 1025 10 16 N/A
9:53 am 09:53 Cloudy 63 17.2 53 11.7 70 70 E 9 15 30.27 1025 10 16 N/A
10:53 am 10:53 Cloudy 66 18.9 54 12.2 65 65 ESE 12 19 30.26 1025 10 16 N/A
11:53 am 11:53 Mostly Sunny 70 21.1 56 13.3 61 61 ESE 13 20 30.24 1024 10 16 N/A
12:53 pm 12:53 Sunny 72 22.2 57 13.9 59 59 ESE 13 20 30.22 1024 10 16 N/A
1:53 pm 13:53 Sunny 76 24.4 57 13.9 52 52 SE 14 22 30.20 1023 10 16 N/A
2:53 pm 14:53 Sunny 77 25 57 13.9 50 50 SSE 8 13 30.18 1022 10 16 N/A
3:53 pm 15:53 Sunny 80 26.7 57 13.9 45 45 E 12 19 30.16 1021 10 16 N/A
4:53 pm 16:53 Mostly Sunny 77 25 56 13.3 48 48 SE 14 22 30.16 1021 10 16 N/A
5:53 pm 17:53 Sunny 77 25 57 13.9 50 50 ESE 12 19 30.17 1022 10 16 N/A
6:53 pm 18:53 Sunny 73 22.8 56 13.3 55 55 ESE 13 20 30.19 1022 10 16 N/A
7:53 pm 19:53 Clear 66 18.9 57 13.9 73 73 E 8 13 30.22 1023 10 16 N/A
8:53 pm 20:53 Clear 63 17.2 57 13.9 81 81 E 9 15 30.25 1024 10 16 N/A
9:53 pm 21:53 Clear 61 16.1 57 13.9 87 87 ESE 8 13 30.26 1025 10 16 N/A
10:53 pm 22:53 Clear 61 16.1 57 13.9 87 87 ESE 10 17 30.26 1025 10 16 N/A
11:53 pm 23:53 Clear 60 15.6 59 15 96 96 E 8 13 30.26 1025 10 16 N/A

Powered by AerisWeather